Location: Harwich
(41.7160°N, 69.9939°W)
Time: 13:46:12
(UTC+01:00)

A-11 Canister half - Pass Details

Date: 01 December 2023
Orbit: 1526 x 1682 km, 47.3° (Epoch: 01 March)

Event Time Altitude Azimuth Distance (km) Brightness Sun altitude
Rises 04:53:17 0° 278° (W) 4,925 - -68.7°
Reaches altitude 10° 04:56:33 10° 281° (W) 3,926 - -68.9°
Maximum altitude 05:06:32 64° 2° (N) 1,788 - -69.5°
Drops below altitude 10° 05:16:14 10° 84° (E) 3,815 - -69.9°
Sets 05:19:21 0° 88° (E) 4,779 - -69.9°
